{"data":{"norad_id":60020,"epoch":"2026-09-21T22:44:50.542080Z","epoch_age_seconds":52496,"freshness":"FRESH","line1":"1 60020U 24111E   26264.94780720 -.00000022  00000+0  10487-4 0  9992","line2":"2 60020  53.1584 243.1658 0001532  97.8777 262.2399 15.34388623129043","mean_motion":15.34388623,"eccentricity":0.0001532,"inclination_deg":53.1584,"raan_deg":243.1658,"arg_perigee_deg":97.8777,"mean_anomaly_deg":262.2399,"bstar":1.0487e-5,"rev_number":12904,"period_min":93.848453932391,"perigee_km":461.68903335237,"apogee_km":463.7850771629,"semimajor_km":6840.8740552576,"source":"CELESTRAK","updated_at":"2026-09-22T09:00:49.138007Z"}}